Location: Lecco
(45.8566°N, 9.3977°E)
Time: 17:19:29
(UTC+02:00)

S-56A Canister/Altair - Pass Details

Date: 25 July 2019
Orbit: 633 x 2499 km, 38.9° (Epoch: 22 August)

Event Time Altitude Azimuth Distance (km) Brightness Sun altitude
Rises 07:37:27 0° 240° (WSW) 4,722 11.0 15.4°
Reaches altitude 10° 07:40:16 10° 236° (SW) 3,963 10.7 15.9°
Maximum altitude 07:51:00 57° 162° (SSE) 2,455 10.4 17.7°
Drops below altitude 10° 08:05:12 10° 90° (E) 5,142 13.9 20.2°
Sets 08:09:24 0° 87° (E) 6,179 13.7 20.9°
